[Date Prev][Date Next][Thread Prev][Thread Next] - [Date Index][Thread Index][Author Index]

2 Line ISS Keps 10-1



ISS
1 25544U 98067A   02274.13393519  .00043050  00000-0  51123-3 0  2056
2 25544  51.6350 241.0263 0017405 320.8649 217.1627 15.60554328220558


----
Via the sarex mailing list at AMSAT.ORG courtesy of AMSAT-NA.
To unsubscribe, send "unsubscribe sarex" to Majordomo@amsat.org



AMSAT Top AMSAT Home